FW4096 Weather Reports


time (UTC)temp
F
wind
direction
speed
knots
gust
knots
rain 1hr
in
rain 24hr
in
rain mn
in
humidity
%
barometer
mb
20260507093503 56 6 9.6 14.8 0.00 0.00 0.00 45 1015.5
20260507093005 57 1 10.4 14.8 0.00 0.00 0.00 44 1015.4
20260507092504 56 4 9.6 13.9 0.00 0.00 0.00 44 1015.5
20260507092004 56 14 7.8 13.9 0.00 0.00 0.00 45 1015.4
20260507091505 56 16 7.0 13.0 0.00 0.00 0.00 46 1015.5
20260507091004 56 21 5.2 11.3 0.00 0.00 0.00 46 1015.4
20260507090504 57 32 4.3 10.4 0.00 0.00 0.00 40 1015.4
20260507090005 57 23 5.2 13.9 0.00 0.00 0.00 40 1015.5
20260507085504 57 22 4.3 13.9 0.00 0.00 0.00 41 1015.5
20260507085004 56 39 3.5 7.8 0.00 0.00 0.00 33 1015.5
20260507084504 56 67 4.3 9.6 0.00 0.00 0.00 34 1015.4
20260507084004 56 85 3.5 9.6 0.00 0.00 0.00 32 1015.4
20260507083504 55 91 2.6 7.8 0.00 0.00 0.00 33 1015.4
20260507083004 55 102 5.2 11.3 0.00 0.00 0.00 29 1015.5
20260507082504 55 96 4.3 11.3 0.00 0.00 0.00 30 1015.5
20260507082006 55 74 3.5 10.4 0.00 0.00 0.00 31 1015.5
20260507081504 54 74 3.5 10.4 0.00 0.00 0.00 31 1015.6
20260507081004 54 64 3.5 9.6 0.00 0.00 0.00 32 1015.6
20260507080504 54 60 4.3 9.6 0.00 0.00 0.00 32 1015.6
20260507080106 54 69 5.2 13.0 0.00 0.00 0.00 34 1015.7
20260507075504 54 86 4.3 13.0 0.00 0.00 0.00 32 1015.7
20260507075004 54 71 5.2 11.3 0.00 0.00 0.00 36 1015.7
20260507074503 54 72 5.2 11.3 0.00 0.00 0.00 34 1015.8
20260507074003 54 94 4.3 11.3 0.00 0.00 0.00 35 1015.7
20260507073503 54 89 4.3 9.6 0.00 0.00 0.00 38 1015.7
20260507073006 54 71 3.5 8.7 0.00 0.00 0.00 37 1015.7
20260507072503 53 59 3.5 8.7 0.00 0.00 0.00 37 1015.8
20260507072004 53 51 3.5 7.8 0.00 0.00 0.00 37 1015.8
20260507071504 53 65 2.6 7.8 0.00 0.00 0.00 38 1016.0
20260507071003 53 93 2.6 6.1 0.00 0.00 0.00 39 1016.0
20260507070503 52 87 2.6 7.8 0.00 0.00 0.00 39 1015.8
20260507070107 52 75 3.5 7.8 0.00 0.00 0.00 43 1015.8
20260507065503 52 85 3.5 7.8 0.00 0.00 0.00 42 1015.8
20260507065003 51 84 3.5 8.7 0.00 0.00 0.00 42 1016.0
20260507064504 51 76 3.5 10.4 0.00 0.00 0.00 40 1015.9
20260507064003 51 87 4.3 10.4 0.00 0.00 0.00 42 1015.8
20260507063606 51 98 5.2 8.7 0.00 0.00 0.00 41 1015.8
20260507063005 51 100 5.2 9.6 0.00 0.00 0.00 40 1015.9
20260507062606 51 97 4.3 9.6 0.00 0.00 0.00 40 1015.8
20260507062004 51 92 4.3 8.7 0.00 0.00 0.00 43 1015.7
20260507061503 51 75 3.5 9.6 0.00 0.00 0.00 42 1015.8
20260507061003 51 75 3.5 9.6 0.00 0.00 0.00 44 1015.9
20260507060503 51 87 3.5 7.0 0.00 0.00 0.00 49 1015.9
20260507060106 51 76 3.5 7.0 0.00 0.00 0.00 48 1015.8
20260507055503 50 70 2.6 8.7 0.00 0.00 0.00 48 1015.8
20260507055109 50 81 2.6 8.7 0.00 0.00 0.00 53 1015.7
20260507054503 49 96 2.6 7.8 0.00 0.00 0.00 55 1015.7
20260507054003 49 100 4.3 8.7 0.00 0.00 0.00 54 1015.7
20260507053504 49 104 4.3 9.6 0.00 0.00 0.00 52 1015.7
20260507053005 49 96 2.6 9.6 0.00 0.00 0.00 55 1015.6
20260507052504 48 88 1.7 6.1 0.00 0.00 0.00 61 1015.7
20260507052004 48 98 2.6 7.0 0.00 0.00 0.00 61 1015.6
20260507051504 47 91 2.6 7.0 0.00 0.00 0.00 63 1015.5
20260507051004 46 92 2.6 7.0 0.00 0.00 0.00 62 1015.5
20260507050504 46 98 2.6 7.8 0.00 0.00 0.00 63 1015.5
20260507050004 46 99 2.6 7.8 0.00 0.00 0.00 63 1015.5
20260507045504 45 101 2.6 7.0 0.00 0.00 0.00 67 1015.5
20260507045107 44 101 2.6 7.0 0.00 0.00 0.00 68 1015.5
20260507044607 43 97 2.6 7.0 0.00 0.00 0.00 70 1015.5
20260507044004 42 99 1.7 5.2 0.00 0.00 0.00 73 1015.5
20260507043504 41 92 1.7 5.2 0.00 0.00 0.00 74 1015.4
20260507043004 40 85 1.7 4.3 0.00 0.00 0.00 76 1015.6
20260507042504 40 88 0.9 4.3 0.00 0.00 0.00 78 1015.5
20260507042107 39 91 0.9 3.5 0.00 0.00 0.00 78 1015.6
20260507041504 38 91 0.9 2.6 0.00 0.00 0.00 78 1015.5
20260507041004 38 92 0.9 3.5 0.00 0.00 0.00 79 1015.5
20260507040504 37 95 0.9 3.5 0.00 0.00 0.00 79 1015.5
20260507040005 37 97 1.7 3.5 0.00 0.00 0.00 79 1015.4
20260507035607 37 97 1.7 3.5 0.00 0.00 0.00 79 1015.4
20260507035004 37 97 0.9 3.5 0.00 0.00 0.00 79 1015.3
20260507034607 37 98 0.9 3.5 0.00 0.00 0.00 79 1015.3
20260507034107 37 98 1.7 3.5 0.00 0.00 0.00 79 1015.4
20260507033503 36 98 1.7 5.2 0.00 0.00 0.00 79 1015.4
20260507033003 36 98 1.7 5.2 0.00 0.00 0.00 80 1015.3
20260507032504 36 96 1.7 6.1 0.00 0.00 0.00 80 1015.3
20260507032003 36 95 2.6 6.1 0.00 0.00 0.00 80 1015.1
20260507031503 36 97 2.6 6.1 0.00 0.00 0.00 81 1015.2
20260507031003 36 97 2.6 6.1 0.00 0.00 0.00 81 1015.1
20260507030503 35 94 1.7 6.1 0.00 0.00 0.00 82 1015.2
20260507030003 35 94 1.7 5.2 0.00 0.00 0.00 82 1015.2
20260507025504 35 95 1.7 5.2 0.00 0.00 0.00 82 1015.1
20260507025003 35 96 1.7 3.5 0.00 0.00 0.00 81 1015.2
20260507024503 35 95 1.7 5.2 0.00 0.00 0.00 81 1015.3
20260507024003 35 102 1.7 5.2 0.00 0.00 0.00 82 1015.2
20260507023606 35 110 2.6 5.2 0.00 0.00 0.00 82 1015.2
20260507023003 35 107 2.6 6.1 0.00 0.00 0.00 82 1015.3
20260507022503 35 102 2.6 6.1 0.00 0.00 0.00 82 1015.2
20260507022106 34 97 1.7 5.2 0.00 0.00 0.00 82 1015.2
20260507021503 35 91 1.7 2.6 0.00 0.00 0.00 81 1015.0
20260507021003 35 102 1.7 3.5 0.00 0.00 0.00 81 1015.1
20260507020503 35 106 1.7 3.5 0.00 0.00 0.00 80 1015.1
20260507020003 35 107 1.7 3.5 0.00 0.00 0.00 80 1015.1
20260507015503 36 107 1.7 3.5 0.00 0.00 0.00 80 1015.2
20260507015004 36 107 1.7 5.2 0.00 0.00 0.00 80 1015.1
20260507014504 36 109 1.7 5.2 0.00 0.00 0.00 80 1015.3
20260507014004 37 111 1.7 5.2 0.00 0.00 0.00 79 1015.1
20260507013504 37 113 1.7 3.5 0.00 0.00 0.00 79 1015.1
20260507013004 37 111 1.7 6.1 0.00 0.00 0.00 79 1015.1
20260507012607 37 111 2.6 6.1 0.00 0.00 0.00 79 1015.1
20260507012004 37 115 2.6 6.1 0.00 0.00 0.00 79 1015.2
20260507011504 37 101 2.6 6.1 0.00 0.00 0.00 80 1015.1
20260507011004 37 73 1.7 5.2 0.00 0.00 0.00 81 1014.9
20260507010607 37 76 1.7 5.2 0.00 0.00 0.00 81 1014.9
20260507010004 37 68 2.6 4.3 0.00 0.00 0.00 81 1014.8
20260507005504 37 70 1.7 4.3 0.00 0.00 0.00 81 1014.8
20260507005004 37 86 1.7 3.5 0.00 0.00 0.00 81 1014.8
20260507004504 37 92 0.9 3.5 0.00 0.00 0.00 81 1014.8
20260507004004 38 95 0.9 2.6 0.00 0.00 0.00 81 1014.9
20260507003504 38 96 0.9 2.6 0.00 0.00 0.00 81 1014.9
20260507003107 38 97 0.9 2.6 0.00 0.00 0.00 80 1014.9
20260507002504 38 98 0.9 3.5 0.00 0.00 0.00 80 1015.0
20260507002004 38 97 1.7 3.5 0.00 0.00 0.00 80 1014.9
20260507001504 38 96 1.7 5.2 0.00 0.00 0.00 80 1014.9
20260507001004 38 94 1.7 5.2 0.00 0.00 0.00 79 1015.0
20260507000607 39 94 1.7 5.2 0.00 0.00 0.00 79 1014.9
20260507000004 39 87 1.7 5.2 0.00 0.00 0.00 79 1015.0
20260506235503 39 87 1.7 5.2 0.00 0.00 0.00 79 1015.0
20260506235003 38 93 1.7 5.2 0.00 0.00 0.00 79 1014.9
20260506234504 38 92 1.7 5.2 0.00 0.00 0.00 80 1014.8
20260506234003 38 86 1.7 4.3 0.00 0.00 0.00 80 1014.8
20260506233504 38 82 1.7 4.3 0.00 0.00 0.00 80 1014.8
20260506233003 38 82 1.7 3.5 0.00 0.00 0.00 80 1014.7
20260506232503 38 84 1.7 3.5 0.00 0.00 0.00 80 1014.7
20260506232003 38 85 0.9 2.6 0.00 0.00 0.00 79 1014.7
20260506231504 38 85 0.9 2.6 0.00 0.00 0.00 79 1014.8
20260506231003 39 85 0.9 2.6 0.00 0.00 0.00 79 1015.0
20260506230004 39 90 1.7 3.5 0.00 0.00 0.00 79 1014.8
20260506225504 39 96 1.7 3.5 0.00 0.00 0.00 79 1014.9
20260506225005 39 98 1.7 3.5 0.00 0.00 0.00 79 1014.9
20260506224607 39 98 1.7 2.6 0.00 0.00 0.00 79 1014.9
20260506224004 39 98 1.7 3.5 0.00 0.00 0.00 79 1014.9
20260506223504 39 98 1.7 3.5 0.00 0.00 0.00 80 1014.9
20260506223004 39 98 1.7 2.6 0.00 0.00 0.00 80 1014.9
20260506222504 39 99 0.9 2.6 0.00 0.00 0.00 80 1014.9
20260506222004 39 99 0.9 1.7 0.00 0.00 0.00 80 1014.9
20260506221504 39 99 0.9 1.7 0.00 0.00 0.00 80 1015.0
20260506221003 39 99 0.9 2.6 0.00 0.00 0.00 80 1014.9
20260506220504 39 99 0.9 2.6 0.00 0.00 0.00 80 1014.9
20260506220004 39 95 1.7 3.5 0.00 0.00 0.00 79 1014.9
20260506215504 39 90 1.7 3.5 0.00 0.00 0.00 79 1014.9
20260506215004 39 85 1.7 2.6 0.00 0.00 0.00 78 1014.9
20260506214504 39 81 0.9 3.5 0.00 0.00 0.00 78 1014.8
20260506214003 40 79 1.7 3.5 0.00 0.00 0.00 78 1014.8
20260506213503 40 81 1.7 4.3 0.00 0.00 0.00 78 1014.8
20260506213004 40 76 0.9 4.3 0.00 0.00 0.00 77 1014.8
20260506212503 40 67 0.9 3.5 0.00 0.00 0.00 77 1014.8
20260506212003 40 64 0.9 3.5 0.00 0.00 0.00 76 1014.7
20260506211503 40 63 0.9 2.6 0.00 0.00 0.00 76 1014.7
20260506211003 40 63 0.9 3.5 0.00 0.00 0.00 76 1014.9
20260506210504 40 65 1.7 3.5 0.00 0.00 0.00 76 1014.7
20260506210003 40 68 1.7 3.5 0.00 0.00 0.00 76 1014.7
20260506205503 40 65 2.6 4.3 0.00 0.00 0.00 76 1014.7
20260506205003 40 60 2.6 4.3 0.00 0.00 0.00 77 1014.7
20260506204503 40 58 1.7 4.3 0.00 0.00 0.00 77 1014.8
20260506204003 40 59 2.6 3.5 0.00 0.00 0.00 77 1014.7
20260506203503 40 63 1.7 4.3 0.00 0.00 0.00 78 1014.7
20260506203106 40 61 1.7 4.3 0.00 0.00 0.00 78 1014.8
20260506202503 40 55 0.9 3.5 0.00 0.00 0.00 78 1014.7
20260506202003 40 55 0.9 2.6 0.00 0.00 0.00 78 1014.7
20260506201503 40 55 0.9 1.7 0.00 0.00 0.00 78 1014.8
20260506201003 40 55 0.9 2.6 0.00 0.00 0.00 78 1014.8
20260506200606 40 54 0.9 2.6 0.00 0.00 0.00 78 1014.8
20260506200003 40 53 0.9 2.6 0.00 0.00 0.00 78 1014.9
20260506195607 41 53 1.7 3.5 0.00 0.00 0.00 78 1014.8
20260506195005 41 51 1.7 3.5 0.00 0.00 0.00 78 1014.9
20260506194504 41 50 1.7 3.5 0.00 0.00 0.00 77 1014.9
20260506194004 41 50 1.7 3.5 0.00 0.00 0.00 77 1014.9
20260506193504 41 50 1.7 3.5 0.00 0.00 0.00 77 1014.9
20260506193004 41 51 1.7 3.5 0.00 0.00 0.00 77 1015.0
20260506192504 41 52 1.7 3.5 0.00 0.00 0.00 77 1015.0
20260506192004 41 53 1.7 4.3 0.00 0.00 0.00 76 1015.1
20260506191607 41 54 1.7 4.3 0.00 0.00 0.00 76 1015.1
20260506191107 41 53 2.6 3.5 0.00 0.00 0.00 76 1015.1
20260506190504 41 51 1.7 3.5 0.00 0.00 0.00 75 1015.2
20260506190005 42 52 1.7 2.6 0.00 0.00 0.00 75 1015.2
20260506185504 42 52 1.7 2.6 0.00 0.00 0.00 75 1015.2
20260506185004 42 54 1.7 3.5 0.00 0.00 0.00 74 1015.2
20260506184504 42 56 1.7 3.5 0.00 0.00 0.00 74 1015.3
20260506184004 42 51 1.7 3.5 0.00 0.00 0.00 74 1015.2
20260506183503 42 46 1.7 3.5 0.00 0.00 0.00 73 1015.2
20260506183107 42 45 1.7 3.5 0.00 0.00 0.00 73 1015.2
20260506182607 42 44 1.7 3.5 0.00 0.00 0.00 72 1015.2
20260506182004 42 42 1.7 2.6 0.00 0.00 0.00 72 1015.1
20260506181503 42 31 1.7 4.3 0.00 0.00 0.00 72 1015.2
20260506181004 42 25 2.6 4.3 0.00 0.00 0.00 71 1015.1
20260506180503 42 31 2.6 4.3 0.00 0.00 0.00 71 1015.0
20260506180004 43 27 2.6 4.3 0.00 0.00 0.00 70 1015.1
20260506175503 43 13 2.6 7.8 0.00 0.00 0.00 69 1015.2
20260506175004 43 16 2.6 7.8 0.00 0.00 0.00 69 1015.2
20260506174504 43 31 2.6 4.3 0.00 0.00 0.00 68 1015.1
20260506174003 43 31 2.6 4.3 0.00 0.00 0.00 66 1015.1
20260506173503 43 18 2.6 6.1 0.00 0.00 0.00 66 1015.2
20260506173004 43 12 3.5 7.8 0.00 0.00 0.00 65 1015.2
20260506172606 44 7 4.3 7.8 0.00 0.00 0.00 65 1015.1
20260506172003 44 8 3.5 7.8 0.00 0.00 0.00 66 1015.1
20260506171504 44 14 2.6 7.0 0.00 0.00 0.00 64 1015.1
20260506171003 44 11 3.5 7.0 0.00 0.00 0.00 65 1015.2
20260506170504 44 20 3.5 7.8 0.00 0.00 0.00 65 1015.2
20260506170004 44 40 3.5 7.8 0.00 0.00 0.00 64 1015.1
20260506165503 45 35 3.5 7.8 0.00 0.00 0.00 63 1015.2
20260506165003 45 19 3.5 7.8 0.00 0.00 0.00 63 1015.2
20260506164503 45 13 4.3 7.8 0.00 0.00 0.00 63 1015.1
20260506164106 45 7 5.2 10.4 0.00 0.00 0.00 62 1015.2
20260506163503 46 8 6.1 10.4 0.00 0.00 0.00 61 1015.1
20260506163003 46 5 6.1 9.6 0.00 0.00 0.00 60 1015.2
20260506162606 46 359 6.1 9.6 0.00 0.00 0.00 60 1015.1
20260506162003 46 359 6.1 8.7 0.00 0.00 0.00 61 1015.1
20260506161503 47 3 6.1 11.3 0.00 0.00 0.00 60 1015.1
20260506161003 47 5 7.0 11.3 0.00 0.00 0.00 59 1015.1
20260506160504 47 3 7.0 11.3 0.00 0.00 0.00 59 1015.2
20260506160108 48 357 7.8 12.2 0.00 0.00 0.00 60 1015.2
20260506155504 48 357 8.7 12.2 0.00 0.00 0.00 60 1015.1
20260506155006 49 2 7.8 10.4 0.00 0.00 0.00 59 1015.2
20260506154504 49 2 7.0 10.4 0.00 0.00 0.00 59 1015.3
20260506154004 49 2 6.1 10.4 0.00 0.00 0.00 59 1015.3
20260506153504 48 360 7.8 12.2 0.00 0.00 0.00 61 1015.2
20260506153004 48 355 8.7 12.2 0.00 0.00 0.00 61 1015.3
20260506152504 48 353 8.7 12.2 0.00 0.00 0.00 63 1015.3
20260506152004 48 356 7.8 12.2 0.00 0.00 0.00 62 1015.4
20260506151504 48 359 7.8 12.2 0.00 0.00 0.00 61 1015.5
20260506151004 48 354 7.8 9.6 0.00 0.00 0.00 64 1015.4
20260506150607 48 353 7.8 11.3 0.00 0.00 0.00 66 1015.6
20260506150004 48 357 7.8 11.3 0.00 0.00 0.00 62 1015.5
20260506145504 48 356 7.8 10.4 0.00 0.00 0.00 62 1015.6
20260506145004 48 358 8.7 11.3 0.00 0.00 0.00 63 1015.6
20260506144504 48 353 7.8 11.3 0.00 0.00 0.00 63 1015.6
20260506144107 48 347 7.8 10.4 0.00 0.00 0.00 70 1015.7
20260506143504 48 344 7.8 10.4 0.00 0.00 0.00 70 1015.7
20260506143004 47 338 7.8 10.4 0.00 0.00 0.00 69 1015.7
20260506142504 47 337 7.0 9.6 0.00 0.00 0.00 71 1015.7
20260506142004 47 342 7.8 11.3 0.00 0.00 0.00 71 1015.7
20260506141503 47 341 8.7 11.3 0.00 0.00 0.00 69 1015.7
20260506141004 47 338 8.7 11.3 0.00 0.00 0.00 71 1015.8
20260506140504 47 339 8.7 12.2 0.00 0.00 0.00 73 1015.8
20260506140004 47 338 8.7 12.2 0.00 0.00 0.00 72 1015.9
20260506135504 47 332 8.7 11.3 0.00 0.00 0.00 71 1015.8
20260506135003 47 330 7.8 11.3 0.00 0.00 0.00 72 1015.9
20260506134606 47 330 7.8 10.4 0.00 0.00 0.00 71 1016.0
20260506134107 47 328 7.8 10.4 0.00 0.00 0.00 70 1016.0
20260506133504 48 328 7.8 10.4 0.00 0.00 0.00 70 1015.9
20260506133003 48 329 7.0 10.4 0.00 0.00 0.00 68 1016.0
20260506132503 48 329 7.0 9.6 0.00 0.00 0.00 68 1016.0
20260506132003 49 328 7.0 10.4 0.00 0.00 0.00 70 1016.0
20260506131503 49 327 7.0 10.4 0.00 0.00 0.00 68 1016.1
20260506131003 49 329 7.0 10.4 0.00 0.00 0.00 68 1015.9
20260506130503 49 329 7.0 10.4 0.00 0.00 0.00 68 1016.0
20260506130004 49 328 7.0 9.6 0.00 0.00 0.00 70 1015.9
20260506125503 48 328 6.1 10.4 0.00 0.00 0.00 72 1016.1
20260506125004 48 326 6.1 10.4 0.00 0.00 0.00 71 1016.1
20260506124503 48 321 5.2 8.7 0.00 0.00 0.00 71 1016.0
20260506124003 49 324 6.1 9.6 0.00 0.00 0.00 72 1016.0
20260506123503 49 323 6.1 9.6 0.00 0.00 0.00 72 1016.1
20260506123106 49 319 6.1 9.6 0.00 0.00 0.00 69 1016.0
20260506122503 50 322 7.0 11.3 0.00 0.00 0.00 66 1016.0
20260506122106 50 328 7.8 11.3 0.00 0.00 0.00 66 1015.8
20260506121503 50 330 8.7 11.3 0.00 0.00 0.00 66 1015.8
20260506121107 50 329 8.7 11.3 0.00 0.00 0.00 70 1015.8
20260506120504 49 328 7.8 11.3 0.00 0.00 0.00 69 1015.7
20260506120004 50 329 7.0 10.4 0.00 0.00 0.00 66 1015.9
20260506115504 51 331 7.0 10.4 0.00 0.00 0.00 66 1015.9
20260506115004 51 330 7.8 10.4 0.00 0.00 0.00 65 1015.9
20260506114504 51 327 7.8 10.4 0.00 0.00 0.00 66 1015.9
20260506114005 51 328 7.8 10.4 0.00 0.00 0.00 65 1015.9
20260506113504 52 330 7.0 10.4 0.00 0.00 0.00 64 1015.9
20260506113107 52 331 7.0 9.6 0.00 0.00 0.00 66 1015.9
20260506112504 52 329 7.0 9.6 0.00 0.00 0.00 66 1015.8
20260506112004 52 329 7.0 9.6 0.00 0.00 0.00 66 1016.0
20260506111504 52 331 7.0 9.6 0.00 0.00 0.00 66 1015.9
20260506111004 51 327 7.0 9.6 0.00 0.00 0.00 66 1015.9
20260506110504 51 324 7.0 9.6 0.00 0.00 0.00 67 1016.0
20260506110004 52 326 6.1 10.4 0.00 0.00 0.00 66 1016.0
20260506105504 52 324 6.1 10.4 0.00 0.00 0.00 67 1016.0
20260506105004 51 326 7.0 9.6 0.00 0.00 0.00 68 1016.1
20260506104607 51 327 7.0 9.6 0.00 0.00 0.00 69 1016.1
20260506104004 50 324 6.1 9.6 0.00 0.00 0.00 69 1016.1
20260506103504 50 319 5.2 9.6 0.00 0.00 0.00 70 1016.2
20260506103107 50 316 5.2 9.6 0.00 0.00 0.00 72 1016.2
20260506102503 49 308 4.3 7.8 0.00 0.00 0.00 69 1016.2
20260506102004 49 303 5.2 7.8 0.00 0.00 0.00 72 1016.1
20260506101504 48 295 5.2 7.8 0.00 0.00 0.00 72 1016.2
20260506101107 48 294 5.2 7.8 0.00 0.00 0.00 73 1016.2
20260506100607 48 293 5.2 7.8 0.00 0.00 0.00 73 1016.2
20260506100107 47 291 5.2 8.7 0.00 0.00 0.00 75 1016.1
20260506095504 47 281 6.1 8.7 0.00 0.00 0.00 75 1016.1
20260506095003 47 281 6.1 9.6 0.00 0.00 0.00 74 1016.1
20260506094504 48 290 6.1 9.6 0.00 0.00 0.00 73 1016.0
20260506094003 48 300 5.2 8.7 0.00 0.00 0.00 73 1016.1